Regional Weather Roundup
Issued by NWS

Home | Current Version | Previous Version | Graphics & Text | Print | Product List | Glossary On
Versions: 1 2 3 4 5 6 7 8 9 10 11 12 13 14 15 16 17 18 19 20 21 22 23 24 25 26 27 28 29 30 31 32 33 34 35 36 37 38 39 40 41 42 43 44 45 46 47 48 49 50
000
ASUS43 KFSD 171010
RWRSD

WEATHER ROUNDUP FOR SOUTH DAKOTA
NATIONAL WEATHER SERVICE SIOUX FALLS SD
500 AM CDT THU APR 17 2014

NOTE: "FAIR" INDICATES FEW OR NO CLOUDS BELOW 12,000 FEET WITH NO
SIGNIFICANT WEATHER AND/OR OBSTRUCTIONS TO VISIBILITY.


SDZ001>005-009-010-012>017-171100-
NORTHWEST AND NORTH CENTRAL SOUTH DAKOTA

CITY           SKY/WX    TMP DP  RH WIND       PRES   REMARKS
BUFFALO          N/A     29  24  82 SE14      30.08S WCI  18
FAITH            N/A     29  22  75 SE10      30.20S WCI  20
MOBRIDGE       CLOUDY    26  14  60 SE6       30.25R WCI  19
$$

SDZ012>016-024>037-041>051-057-063-072>074-171100-
SOUTHWEST AND SOUTH CENTRAL SOUTH DAKOTA

CITY           SKY/WX    TMP DP  RH WIND       PRES   REMARKS
RAPID CTY ARPT CLOUDY    28  25  88 S10       30.15F WCI  19
PIERRE         CLEAR     20  17  88 W6        30.27R WCI  12
CUSTER         CLOUDY    25  24  96 SW6       30.06F FOG     WCI  18
ELLSWORTH AFB  CLOUDY    29  26  88 S15       30.14F WCI  18
PHILIP         CLOUDY    29  24  82 E5        30.24S WCI  24
PINE RIDGE     CLOUDY    30  26  85 E5        30.17S WCI  25
SPEARFISH      FAIR      25  25 100 SE5       30.08F WCI  19
WINNER         FAIR      25  20  81 SW6       30.26R WCI  18
$$

SDZ004>011-016>023-039-040-171100-
NORTHEAST SOUTH DAKOTA

CITY           SKY/WX    TMP DP  RH WIND       PRES   REMARKS
ABERDEEN       PTCLDY    17  14  88 N8        30.28R WCI   7
WATERTOWN      PTCLDY    13  12  96 N6        30.21R WCI   4
SISSETON         N/A     20  17  88 N10       30.25R WCI   9
$$

SDZ017-020-022-023-036>040-048>070-171100-
SOUTHEAST SOUTH DAKOTA

CITY           SKY/WX    TMP DP  RH WIND       PRES   REMARKS
SIOUX FALLS    CLEAR     23  20  88 NW9       30.21R WCI  13
HURON          CLEAR     18  14  84 W3        30.26R
CHAMBERLAIN      N/A     23  20  88 NW6       30.26R WCI  16
MITCHELL       CLEAR     21  18  88 NW6       30.26R WCI  13
YANKTON        CLEAR     27  19  74 NW9       30.26R WCI  17
$$

ABBREVIATIONS USED IN REMARKS
   TC - TEMPERATURE IN CELSIUS
  WCI - WIND CHILL INDEX
   HX - HEAT INDEX
  VSB - VISIBILITY




USA.gov is the U.S. government's official web portal to all federal, state and local government web resources and services.